Temp_Advection
nan nan nan nan nan nan nan nan nan nan nan nan nan nan nan nan nan nan nan nan nan nan nan nan nan nan nan nan nan nan nan nan nan
nan 0 0 -0 -0 -0 -0 -0 -0 -0 -0 -0 -0 -0 -0 -0 -0 -0 0 0 0 -0 -0 0 -0 -0 0 -0 -0 -0 0 0 nan
nan -0 -0 -0 -0 -0 -0 -0 -0 -0 -0 -0 -0 -0 -0 -0 -0 -0 -0 0 -0 -0 -0 0 0 -0 -0 -0 -0 -0 -0 0 nan
nan -0 0 -0 -0 -0 -0 -0 -0 -0 -0 -0 -0 -0 -0 -0 -0 -0 -0 -0 -0 -0 -0 -0 -0 -0 -0 -0 -0 -0 -0 -0 nan
nan 0 -0 -0 -0 -0 -0 -0 -0 -0 -0 -0 -0 -0 -0 -0 -0 -0 -0 -0 -0 -0 -0 -0 -0 -0 -0 -0 -0 -0 -0 -0 nan
nan 0 -0 -0 -0 -0 -0 -0 -0 -0 -0 -0 -0 -0 -0 -0 -0 -0 -0 -1 -0 -0 -0 -0 -0 -0 -0 -0 -0 -0 -0 -0 nan
nan -0 -0 -0 0 -0 -0 -0 -0 -0 -0 -0 -0 -0 -0 -0 -0 -0 -0 -0 -0 -0 -0 -0 -0 -0 -0 -0 -0 -0 -0 -0 nan
nan -0 -0 -0 -0 -0 -0 -0 -0 -0 -0 -0 -0 -0 -0 -0 -0 -0 -0 -0 -0 -0 -0 -0 -0 0 0 0 0 0 -0 -0 nan
nan -0 -0 -0 -0 -0 -0 -0 -0 -0 -0 -0 -0 -0 -0 -0 -0 -0 -0 -0 -0 -0 -0 -0 -0 0 0 -0 -0 -0 -0 -0 nan
nan -0 -0 -0 -0 -0 -0 -0 -0 -0 -0 -0 -0 -0 -0 -0 -0 -0 -0 -0 -0 -0 0 -0 0 -0 -0 -0 -0 -0 -0 -0 nan
nan -0 -0 -0 -0 -0 -0 -0 -0 -0 -0 -0 -0 -0 -0 -0 -0 -0 -0 -0 -0 -0 -0 0 0 0 0 0 0 0 0 -0 nan
nan -0 -0 -0 0 -0 -0 -0 -0 -0 -0 -0 -0 -0 -0 -0 -0 -0 -0 -0 -0 0 0 0 0 -0 0 0 -0 -0 0 0 nan
nan -0 -0 0 -0 -0 -0 -0 -0 -0 -0 -0 -0 -0 -0 -0 -0 -0 -0 -0 -0 -0 0 -0 0 0 0 0 0 -0 -0 -0 nan
nan -0 0 -0 -0 -0 -0 -0 -0 -0 -0 -0 -0 -0 -0 -0 -0 -0 -0 -0 -0 0 -0 0 0 -0 0 0 -0 -0 0 -0 nan
nan 0 0 -0 -0 -0 -0 -0 -0 -0 -0 -0 -0 -0 -0 -0 -0 -0 -0 -0 0 -0 -0 0 -0 -0 -0 -0 -0 0 0 0 nan
nan 0 0 -0 -0 -0 -0 -0 -0 -0 -0 -0 -0 -0 0 -0 -0 -0 -0 -0 -0 -0 -0 -0 -0 -0 -0 -0 -0 -0 0 0 nan
nan 0 0 -0 -0 0 -0 -0 -0 -0 -0 -0 -0 -0 0 0 0 -0 -0 -0 -0 -0 -0 -0 -0 -0 -0 -0 -0 -0 -0 -0 nan
nan 0 0 0 0 0 0 -0 -0 -0 -0 -0 -0 -0 -0 0 0 0 0 -0 -0 -0 -0 -0 -0 -0 -0 -0 -0 -0 -0 -0 nan
nan 0 0 0 0 0 -0 -0 -0 -0 -0 -0 -0 -0 -0 -0 -0 0 0 0 -0 -0 -0 -0 -0 -0 -0 -0 -0 -0 -0 -0 nan
nan nan nan nan nan nan nan nan nan nan nan nan nan nan nan nan nan nan nan nan nan nan nan nan nan nan nan nan nan nan nan nan nan
Wind_Speed
9 9 9 9 9 9 10 9 9 9 9 8 7 7 7 6 4 2 1 2 4 7 7 8 9 9 10 10 10 9 7 4 5
9 9 9 9 9 9 9 9 9 9 8 8 8 8 7 6 5 3 1 3 5 8 8 7 6 7 7 7 9 10 10 9 5
8 8 8 9 9 9 9 9 8 8 8 8 8 7 7 6 5 4 3 3 5 7 8 6 5 5 6 7 7 7 8 9 9
8 8 8 9 9 9 9 9 9 9 9 9 9 8 8 7 5 5 4 5 6 5 4 2 3 4 4 6 7 6 5 6 7
7 7 8 8 9 9 9 9 8 8 9 9 8 8 8 6 5 5 6 8 8 7 5 3 3 2 3 5 5 6 5 4 4
6 6 7 9 9 9 9 9 9 9 9 9 9 8 7 7 6 6 8 15 15 12 10 8 7 6 7 7 7 6 5 5 4
5 6 7 8 9 9 10 10 10 9 9 9 9 9 9 8 7 8 9 13 10 11 11 11 8 9 8 7 7 7 7 5 5
4 5 7 8 9 9 10 9 8 8 9 9 9 9 9 9 8 8 9 11 9 5 5 6 9 10 13 12 13 8 7 8 6
3 5 6 7 8 9 8 8 8 9 8 8 9 9 9 10 10 8 7 7 12 11 11 11 10 8 8 9 11 13 11 8 7
3 4 5 7 7 7 8 8 9 9 8 7 8 8 9 9 9 9 9 8 7 10 9 9 10 10 8 7 9 10 10 8 6
2 3 4 5 6 7 8 8 8 8 7 7 7 7 8 9 9 9 9 8 7 7 8 9 10 11 11 12 13 13 9 7 8
2 2 4 5 7 7 8 8 8 8 7 6 6 7 7 8 9 9 8 8 7 7 6 7 7 9 10 9 14 11 13 10 9
1 2 3 5 6 7 7 7 7 7 6 6 5 6 7 8 8 9 9 9 10 9 8 6 6 5 7 5 9 13 11 11 11
2 2 3 4 5 5 6 6 7 7 6 5 4 5 5 6 8 8 8 9 9 10 10 9 7 6 5 5 2 4 7 7 5
3 2 3 3 4 5 5 6 6 7 6 5 3 2 2 4 6 5 7 8 9 9 9 9 8 6 5 4 2 3 4 3 5
5 4 3 3 3 3 4 5 6 6 5 4 2 0 0 2 5 2 4 5 10 8 8 9 7 7 6 6 6 4 4 6 9
6 5 4 3 2 3 4 5 5 6 6 4 2 0 2 2 2 2 3 5 9 7 7 8 7 7 6 7 7 7 6 6 8
8 6 4 3 2 1 3 4 5 5 6 6 4 2 1 5 1 2 3 6 7 6 9 7 6 7 7 8 8 8 9 9 10
9 7 5 3 2 1 2 3 4 4 5 5 5 4 3 2 1 3 2 10 8 8 6 7 5 6 6 7 8 9 11 12 13
10 8 6 4 3 1 0 2 3 3 4 4 5 4 4 3 4 3 6 7 4 10 6 6 6 6 6 7 8 10 12 15 16
Wind_Direction
80 77 70 64 60 55 50 46 44 40 38 38 36 36 36 35 34 34 295 270 275 283 284 279 272 270 279 285 285 282 279 298 272
78 71 63 59 54 51 48 44 40 35 33 33 30 27 26 27 30 30 336 279 280 291 297 294 290 288 279 272 272 273 269 263 271
78 69 63 59 54 47 42 40 36 32 28 29 28 26 24 24 19 13 359 312 297 303 305 298 287 284 289 291 287 283 279 270 260
73 62 60 54 47 38 35 32 29 26 23 23 18 16 18 22 21 16 4 336 336 342 333 314 299 297 303 296 307 306 300 285 270
73 64 54 47 38 34 31 30 30 32 28 24 22 20 21 22 23 18 10 14 16 32 31 19 13 1 323 334 333 332 328 314 291
72 55 47 40 33 28 28 27 28 28 25 24 26 26 27 33 32 33 43 44 31 41 46 49 46 30 34 29 15 359 344 315 293
70 51 42 33 29 26 26 25 25 27 28 32 35 37 43 46 47 50 71 69 56 48 47 53 60 45 40 30 15 350 336 320 311
70 49 38 32 29 24 24 25 26 32 36 40 43 45 48 49 52 58 78 67 46 51 47 59 40 60 35 20 5 356 348 339 319
64 43 36 35 29 26 25 28 34 39 42 46 51 53 53 55 53 50 55 59 66 55 50 46 41 47 52 28 14 14 4 353 1
68 40 39 36 33 30 32 36 40 43 46 51 56 60 61 56 54 55 52 52 52 62 53 56 57 48 39 13 353 347 349 7 8
77 47 44 41 40 39 42 44 45 44 46 57 61 65 60 58 59 58 55 51 47 45 50 47 48 55 49 50 19 6 10 21 26
95 65 51 46 45 43 43 43 45 42 47 58 59 65 62 56 53 53 51 50 47 41 31 22 27 46 53 70 37 29 31 26 22
138 90 61 58 55 48 45 45 44 43 52 59 65 69 71 60 54 49 48 43 40 35 27 19 11 10 34 106 72 53 48 50 47
180 106 80 71 68 58 54 52 48 47 55 65 77 77 75 56 47 47 48 42 38 32 29 24 21 15 16 47 151 84 74 74 59
189 153 113 85 73 66 59 55 51 50 64 68 83 83 70 47 27 36 37 32 22 18 23 21 21 22 27 27 350 273 271 295 307
192 175 141 112 87 71 61 53 50 48 58 52 71 140 340 8 350 14 19 18 12 11 15 19 23 16 19 25 19 359 308 304 309
194 183 157 132 106 80 66 56 53 54 56 58 100 148 286 293 329 357 3 2 360 8 7 6 12 14 15 12 9 8 2 350 345
195 187 167 151 137 97 64 52 47 46 44 47 60 69 39 337 293 329 348 6 3 19 356 4 4 11 7 4 4 1 359 353 346
196 191 179 170 172 133 66 53 43 37 34 31 39 48 19 15 342 305 302 351 348 355 5 359 360 353 353 353 354 352 348 343 339
197 194 188 189 196 196 53 35 28 20 18 17 20 13 10 12 340 326 312 339 345 345 342 351 343 331 328 330 331 334 335 333 330
Height
1554 1554 1553 1553 1553 1552 1552 1552 1551 1551 1551 1550 1550 1549 1548 1548 1548 1548 1549 1549 1548 1548 1548 1548 1548 1548 1548 1548 1549 1548 1548 1548 1547
1554 1554 1554 1554 1554 1553 1552 1552 1552 1551 1551 1550 1550 1549 1548 1547 1547 1547 1547 1547 1547 1546 1546 1546 1546 1546 1546 1546 1545 1546 1546 1546 1546
1555 1555 1554 1554 1554 1554 1553 1553 1552 1551 1551 1550 1550 1549 1548 1548 1547 1547 1547 1547 1546 1545 1545 1545 1545 1545 1545 1545 1544 1544 1545 1545 1545
1555 1555 1555 1554 1554 1554 1553 1552 1552 1551 1550 1549 1549 1548 1548 1547 1547 1547 1547 1546 1545 1544 1543 1544 1544 1545 1544 1544 1544 1543 1543 1543 1543
1556 1556 1555 1555 1554 1554 1553 1552 1552 1551 1550 1550 1549 1548 1547 1547 1546 1546 1546 1545 1544 1544 1543 1543 1544 1544 1543 1543 1543 1543 1542 1542 1541
1556 1556 1556 1555 1554 1554 1553 1553 1552 1550 1550 1550 1549 1548 1548 1547 1547 1546 1546 1546 1546 1544 1544 1544 1544 1544 1544 1543 1543 1542 1541 1540 1540
1556 1556 1555 1555 1554 1554 1553 1552 1551 1551 1550 1549 1549 1548 1548 1547 1547 1547 1546 1548 1548 1547 1546 1545 1545 1545 1544 1544 1543 1542 1540 1540 1539
1556 1556 1555 1555 1554 1553 1552 1552 1551 1551 1550 1550 1549 1549 1548 1548 1548 1548 1547 1548 1548 1548 1547 1546 1545 1545 1545 1544 1543 1541 1540 1539 1538
1556 1556 1556 1555 1554 1554 1553 1552 1551 1551 1550 1550 1550 1549 1549 1548 1548 1548 1548 1548 1548 1548 1548 1546 1546 1545 1546 1545 1543 1541 1539 1538 1537
1556 1556 1556 1555 1554 1554 1553 1552 1551 1551 1551 1550 1550 1550 1549 1549 1549 1548 1548 1548 1548 1548 1547 1546 1546 1546 1545 1545 1543 1541 1540 1538 1537
1555 1556 1556 1555 1554 1554 1553 1552 1551 1551 1551 1551 1551 1551 1550 1550 1549 1549 1549 1548 1548 1547 1546 1546 1545 1545 1545 1545 1543 1541 1539 1539 1538
1555 1555 1555 1555 1554 1554 1553 1552 1551 1551 1551 1551 1551 1551 1551 1551 1550 1550 1549 1549 1548 1547 1546 1545 1545 1545 1545 1545 1544 1542 1540 1539 1538
1554 1555 1554 1554 1554 1554 1553 1552 1552 1551 1551 1551 1552 1552 1552 1551 1551 1551 1550 1550 1549 1548 1547 1546 1545 1544 1544 1544 1544 1543 1542 1541 1539
1554 1554 1554 1554 1553 1553 1553 1552 1552 1551 1551 1551 1552 1552 1553 1552 1552 1552 1551 1551 1550 1549 1547 1546 1545 1544 1544 1544 1544 1543 1542 1541 1540
1553 1554 1553 1553 1553 1553 1553 1552 1552 1552 1551 1551 1552 1553 1553 1553 1552 1552 1552 1551 1550 1549 1548 1546 1545 1544 1544 1543 1543 1543 1542 1541 1540
1552 1553 1552 1552 1553 1553 1553 1553 1552 1552 1551 1551 1552 1553 1553 1553 1553 1552 1552 1552 1551 1549 1548 1547 1545 1544 1544 1543 1542 1541 1541 1540 1539
1551 1552 1551 1552 1552 1553 1552 1552 1553 1553 1552 1551 1551 1553 1554 1553 1553 1553 1552 1552 1551 1549 1548 1547 1546 1545 1544 1543 1542 1541 1539 1538 1537
1549 1550 1550 1550 1552 1552 1551 1551 1552 1552 1552 1551 1552 1551 1553 1552 1553 1553 1553 1552 1551 1549 1548 1546 1546 1545 1544 1543 1541 1540 1539 1537 1536
1547 1549 1549 1550 1551 1551 1550 1550 1551 1551 1552 1552 1551 1551 1552 1552 1553 1553 1553 1552 1551 1550 1548 1546 1545 1544 1543 1542 1541 1540 1538 1536 1535
1545 1547 1547 1549 1550 1550 1550 1549 1550 1550 1551 1551 1551 1551 1551 1551 1551 1551 1552 1552 1551 1549 1548 1547 1545 1543 1542 1541 1540 1538 1537 1535 1533